Overview Statistics Trail Chart Weather Telemetry Raw packets
 

This is the latest recevied weather packets stored in our database for station/object ALANSN-2. If no packets are shown the sender has not sent any weather packets the latest 10 day(s).

<< 96 97 98 99 100 101 102 >>
Time Temp. Humidity Pressure Rain* Wind** Luminosity Snow
1787841418 17.78° C 93% 1024.4 hPa 0 mm - 152 W/m² -
1787841120 17.78° C 94% 1024.4 hPa 0 mm - 113 W/m² -
1787840824 17.78° C 94% 1024.4 hPa 0 mm - 113 W/m² -
1787840520 17.78° C 95% 1024.3 hPa 0 mm - 117 W/m² -
1787840220 17.78° C 95% 1024.1 hPa 0 mm - 76 W/m² -
1787839920 17.78° C 95% 1024.1 hPa 0 mm - 76 W/m² -
1787839620 17.78° C 96% 1024.1 hPa 0 mm - 89 W/m² -
1787839320 17.78° C 95% 1024.2 hPa 0 mm - 39 W/m² -
1787839020 17.78° C 95% 1024.2 hPa 0 mm - 39 W/m² -
1787838720 17.78° C 95% 1024 hPa 0 mm - 50 W/m² -
1787838420 18.33° C 94% 1024 hPa 0 mm - 71 W/m² -
1787838120 18.33° C 94% 1024 hPa 0 mm - 71 W/m² -
1787837820 18.33° C 94% 1024 hPa 0 mm - 75 W/m² -
1787837520 18.33° C 94% 1024 hPa 0 mm - 52 W/m² -
1787837221 18.33° C 94% 1024 hPa 0 mm - 52 W/m² -
1787836920 18.33° C 94% 1023.9 hPa 0 mm - 45 W/m² -
1787836620 18.33° C 95% 1023.8 hPa 0 mm - 46 W/m² -
1787836320 18.33° C 95% 1023.8 hPa 0 mm - 46 W/m² -
1787836020 18.33° C 95% 1023.7 hPa 0 mm - 77 W/m² -
1787835720 18.33° C 96% 1023.7 hPa 0 mm - 66 W/m² -
1787835420 18.33° C 96% 1023.7 hPa 0 mm - 66 W/m² -
1787835119 18.33° C 96% 1023.7 hPa 0 mm - 66 W/m² -
1787834820 18.33° C 95% 1023.4 hPa 0 mm - 28 W/m² -
1787834520 18.33° C 95% 1023.4 hPa 0 mm - 28 W/m² -
1787834220 18.33° C 95% 1023.3 hPa 0 mm - 44 W/m² -

* Rain latest hour (hover to see other rain measurements)
** Current wind speed in m/s (hover to see current wind gust speed)